Weather History for Meridian NAS, MS

Change the Weather History Date:

Wednesday, October 17, 2012

  Actual Average Record
Temperature  
Mean Temperature 63 °F -  
Max Temperature 79 °F 74 °F 87 °F (2011)
Min Temperature 48 °F 51 °F 37 °F (2001)
Degree Days  
Heating Degree Days 2    
Growing Degree Days 13 (Base 50)    
Moisture  
Dew Point 55 °F    
Average Humidity 71    
Maximum Humidity 93    
Minimum Humidity 44    
Precipitation  
Precipitation 0.01 in - - ()
Sea Level Pressure  
Sea Level Pressure 29.84 in    
Wind  
Wind Speed 4 mph (SSE)    
Max Wind Speed 12 mph    
Max Gust Speed 20 mph    
Visibility 10 miles    
Events      
Averages and records for this station are not official NWS values.
T = Trace of Precipitation, MM = Missing Value Source: NWS Daily Summary

Daily Weather History Graph

Daily Weather History Graph

Search for Another Location

Airport:

Trip Planner

Search our weather history database for the weather conditions in past years. The results will help you decide how hot, cold, wet, or windy it might be!

Date:

Astronomy

Oct. 17, 2012 Rise Set
Actual Time 6:59 AM CDT 6:18 PM CDT
Civil Twilight 6:35 AM CDT 6:43 PM CDT
Nautical Twilight 6:06 AM CDT 7:11 PM CDT
Astronomical Twilight 5:37 AM CDT 7:40 PM CDT
Moon 9:24 AM CDT (10/17) 8:04 PM CDT (10/17)
Length of Visible Light 12h 08m
Length of Day
11h 18m
Waxing Crescent, 7% of the Moon is Illuminated
Oct 17
Waxing Crescent
Oct 21
First Quarter
Oct 29
Full
Nov 6
Last Quarter
Nov 13
New

Hourly Weather History & Observations

Time (CDT) Temp. Dew Point Humidity Pressure Visibility Wind Dir Wind Speed Gust Speed Precip Events Conditions
12:56 AM 57.0 °F 53.1 °F 87% 29.90 in 10.0 mi Calm Calm - N/A   Clear
1:56 AM 55.0 °F 53.1 °F 93% 29.91 in 10.0 mi Calm Calm - N/A   Unknown
2:56 AM 53.1 °F 51.1 °F 93% 29.90 in 10.0 mi Calm Calm - N/A   Clear
3:56 AM 51.1 °F 48.9 °F 92% 29.91 in 10.0 mi Calm Calm - 0.01 in   Clear
4:56 AM 50.0 °F 48.0 °F 93% 29.91 in 10.0 mi Calm Calm - N/A   Clear
5:56 AM 50.0 °F 48.0 °F 93% 29.91 in 10.0 mi Calm Calm - N/A   Clear
6:56 AM 48.9 °F 46.9 °F 93% 29.92 in 10.0 mi SE 3.5 mph - N/A   Clear
7:56 AM 54.0 °F 51.1 °F 90% 29.93 in 10.0 mi SE 3.5 mph - N/A   Clear
8:56 AM 60.1 °F 53.1 °F 78% 29.92 in 10.0 mi SSE 5.8 mph - N/A   Clear
9:56 AM 66.9 °F 48.9 °F 52% 29.91 in 10.0 mi SSE 9.2 mph - N/A   Clear
10:56 AM 71.1 °F 50.0 °F 47% 29.89 in 10.0 mi SSE 8.1 mph - N/A   Clear
11:56 AM 75.0 °F 54.0 °F 48% 29.87 in 10.0 mi SSE 6.9 mph - N/A   Clear
12:56 PM 77.0 °F 54.0 °F 45% 29.84 in 10.0 mi South 8.1 mph - N/A   Partly Cloudy
1:01 PM 75.2 °F 53.6 °F 47% 29.82 in 10.0 mi South 9.2 mph 18.4 mph N/A   Smoke
1:56 PM 78.8 °F 55.4 °F 44% 29.81 in 10.0 mi South 9.2 mph 16.1 mph N/A   Smoke
2:56 PM 78.1 °F 55.9 °F 46% 29.79 in 10.0 mi Variable 5.8 mph 17.3 mph N/A   Scattered Clouds
3:56 PM 77.0 °F 57.0 °F 50% 29.79 in 10.0 mi South 5.8 mph - N/A   Mostly Cloudy
4:56 PM 77.0 °F 59.0 °F 54% 29.78 in 10.0 mi South 5.8 mph - N/A   Partly Cloudy
5:56 PM 73.9 °F 60.1 °F 62% 29.77 in 10.0 mi SSE 4.6 mph - N/A   Partly Cloudy
6:56 PM 69.1 °F 61.0 °F 75% 29.78 in 10.0 mi SSE 5.8 mph - N/A   Partly Cloudy
7:56 PM 68.0 °F 61.0 °F 78% 29.78 in 9.0 mi SSE 5.8 mph - N/A   Clear
8:56 PM 66.9 °F 61.0 °F 81% 29.77 in 10.0 mi SSE 6.9 mph - N/A   Clear
9:56 PM 68.0 °F 61.0 °F 78% 29.75 in 10.0 mi South 8.1 mph - N/A   Clear
10:56 PM 69.1 °F 62.1 °F 78% 29.76 in 10.0 mi South 11.5 mph 17.3 mph N/A   Scattered Clouds
11:56 PM 69.1 °F 63.0 °F 81% 29.76 in 10.0 mi South 9.2 mph 19.6 mph N/A   Mostly Cloudy